Regional Weather Roundup
Issued by NWS

Home | Current Version | Previous Version | Text Only | Print | Product List | Glossary On
Versions: 1 2 3 4 5 6 7 8 9 10 11 12 13 14 15 16 17 18 19 20 21 22 23 24 25 26 27 28 29 30 31 32 33 34 35 36 37 38 39 40 41 42 43 44 45 46 47 48 49 50
000
ASUS45 KABQ 180410
RWRNM
NEW MEXICO REGIONAL WEATHER ROUNDUP
NATIONAL WEATHER SERVICE ALBUQUERQUE NM
900 PM MST TUE JAN 17 2017

NOTE: "FAIR" MEANS FEW OR NO CLOUDS BELOW 12,000 FEET AGL WITH NO
       SIGNIFICANT WEATHER OR OBSTRUCTIONS TO VISION.

      THIS PRODUCT IS RELEASED AS TWO VERSIONS.  ONE VERSION NEAR
      THE TOP OF THE HOUR CONTAINING PRELIMINARY DATA FROM ALBUQUERQUE
      AND OTHER STATIONS.  A FINAL VERSION WITH ADDITIONAL DATA IS
      ISSUED ABOUT 10 MINUTES AFTER THE HOUR.

NMZ501-503-504-510>518-180500-
NORTHWEST PLATEAU/NORTHCENTRAL MOUNTAINS

CITY           SKY/WX    TMP DP  RH WIND       PRES   REMARKS
FARMINGTON     CLOUDY    34  31  88 W6        30.13R WCI  29
LOS ALAMOS     FAIR      35  27  74 S3        30.12R
SANTA FE       FAIR      33  27  78 N5        30.10R WCI  29
TAOS           CLOUDY    28  21  74 N5        30.12S WCI  23
ANGEL FIRE     FAIR      14  12  93 N5        30.13R WCI   6

$$
NMZ402-403-502-505>509-180500-
WESTCENTRAL MOUNTAINS/SOUTHWEST MOUNTAINS

CITY           SKY/WX    TMP DP  RH WIND       PRES   REMARKS
GALLUP         FAIR      30  28  92 CALM      30.14S
GRANTS         FAIR      32  31  96 CALM      30.16S
SILVER CITY    DRIZZLE   39  37  94 CALM      30.16R

$$
NMZ407-409-411-412-180500-
SOUTHERN DESERTS

CITY           SKY/WX    TMP DP  RH WIND       PRES   REMARKS
DEMING         CLOUDY    40  39  97 CALM      30.15R
LAS CRUCES     FAIR      40  39  95 S3        30.16R
HOLLOMAN AFB   CLOUDY    43  43  99 S5        30.18R
ALAMOGORDO     MOCLDY    41  41 100 S7        30.15S
T OR C         FAIR      43  36  76 S7        30.12R

$$
NMZ519>523-180500-
CENTRAL VALLEYS/CENTRAL HIGHLANDS

CITY           SKY/WX    TMP DP  RH WIND       PRES   REMARKS
ALBUQUERQUE    MOCLDY    40  34  79 SE7       30.12R
DOUBLE EAGLE   PTCLDY    34  30  86 SW8       30.13R WCI  27
MORIARTY ARPT  FAIR      31  27  88 CALM      30.13S
CLINES CORNERS NOT AVBL
BELEN          FAIR      38  33  82 SW3       30.12S
SOCORRO        CLOUDY    39  36  86 CALM      30.13R

$$
NMZ524>526-539-540-180500-
SOUTHCENTRAL MOUNTAINS

CITY           SKY/WX    TMP DP  RH WIND       PRES   REMARKS
RUIDOSO        MIX PCPN  32  32 100 CALM      30.17R

$$
NMZ527>531-180500-
NORTHEAST HIGHLANDS/NORTHEAST PLAINS

CITY           SKY/WX    TMP DP  RH WIND       PRES   REMARKS
LAS VEGAS      FAIR      30  27  88 N7        30.08S WCI  23
RATON          FAIR      23  20  88 NW6       30.08R WCI  16
CLAYTON        FAIR      34  33  96 S12       30.08S WCI  25

$$
NMZ532>537-180500-
EASTCENTRAL PLAINS

CITY           SKY/WX    TMP DP  RH WIND       PRES   REMARKS
TUCUMCARI      FAIR      46  38  73 S13       30.10R
CANNON AFB     LGT RAIN  42  42 100 SW8       30.16R
CLOVIS AIRPORT CLOUDY    43  39  87 S9        30.16R

$$
NMZ028-029-538-180500-
SOUTHEAST PLAINS

CITY           SKY/WX    TMP DP  RH WIND       PRES   REMARKS
ROSWELL        CLOUDY    43  39  86 CALM      30.16S
ARTESIA        MOCLDY    43  43 100 CALM      30.18R
CARLSBAD       CLOUDY    44  43  96 CALM      30.17R


$$




USA.gov is the U.S. government's official web portal to all federal, state and local government web resources and services.